Location: Cerda�ola
(41.4919°N, 2.1403°E)
Time: 20:24:55
(UTC+00:00)

Hubble Space Telescope - Visible Passes

Search period start: 05 March 2021 00:00
Search period end: 15 March 2021 00:00
Orbit: 535 x 539 km, 28.5° (Epoch: 05 March)

Date Brightness Start Highest point End Pass type
(mag) Time Alt. Az. Time Alt. Az. Time Alt. Az.
07 Mar 3.2 18:26:08 10° S 18:26:34 10° SSE 18:27:00 10° SSE visible
07 Mar 3.5 20:04:56 10° SSW 20:05:05 10° SSW 20:05:05 10° SSW visible
08 Mar 3.2 18:14:17 10° S 18:15:33 11° S 18:16:49 10° SSE visible
08 Mar 3.3 19:54:00 10° SSW 19:54:55 12° SSW 19:54:55 12° SSW visible
09 Mar 3.1 19:43:10 10° SSW 19:44:44 12° S 19:44:44 12° S visible
10 Mar 3.2 19:32:27 10° SSW 19:33:54 12° S 19:34:33 11° S visible
11 Mar 3.3 19:21:59 10° SSW 19:22:53 11° S 19:23:48 10° S visible
